Location: Lynch Observatory
(39.9540°N, 75.1861°W)
Time: 02:32:53
(UTC-04:00)

NANOSAT C BR1 - Pass Details

Date: 25 April 2024
Orbit: 556 x 561 km, 98.1° (Epoch: 19 May)

Event Time Altitude Azimuth Distance (km) Brightness Sun altitude
Rises 04:37:20 0° 16° (NNE) 2,769 ? -16.4°
Reaches altitude 10° 04:39:31 10° 20° (NNE) 1,869 ? -16.1°
Maximum altitude 04:43:30 60° 101° (E) 652 ? -15.4°
Drops below altitude 10° 04:47:29 10° 182° (S) 1,856 ? -14.8°
Enters shadow 04:47:39 - 182° (S) 1,922 ? -14.7°
